Home > Weather > Tuscaloosa > Past weeks

Flag for U.S.A. Weather for the Past 2 Weeks in Tuscaloosa, Alabama, U.S.A.

Now
35 °F

Clear.


Feels Like: 29 °F
Forecast: 26 / 52 °F
Wind: 7 mph from Northeast

Location: Tuscaloosa Municipal Airport

Current Time: Feb 13, 2016 at 10:40:51 PM

Latest Report: Feb 13, 2016 at 9:53 PM


Visibility: 10 mi

Pressure: 30.40 "Hg

Humidity: 35%

Dew point: 10 °F

Location of TuscaloosaLocation

Historic Weather in Tuscaloosa — Graph

°F

Tuscaloosa Temperature Yesterday

Maximum temperature yesterday: 65 °F (at 1:53 PM)
Minimum temperature yesterday: 36 °F (at 5:53 AM)
Average temperature yesterday: 50 °F

High & Low Weather Summary for the Past Weeks

 TemperatureHumidityPressure
High76 °F (Feb 2, 12:53 PM)100% (Feb 1, 6:53 AM)30.53 "Hg (Feb 1, 6:53 AM)
Low22 °F (Feb 10, 4:53 AM)17% (Feb 13, 3:53 PM)29.72 "Hg (Feb 2, 7:55 PM)
Average48 °F60%30.12 "Hg
* Reported Jan 29 8:53 PM — Feb 13 8:53 PM, Tuscaloosa, Weather by CustomWeather, © 2016

Note: Actual official high and low records may vary slightly from our data, if they occured in-between our weather recording intervals... More about our weather records

Advertising

Tuscaloosa Weather History for the Previous 24 Hours

 ConditionsComfort  
Time TempWeatherWind HumidityBarometerVisibility
8:53 PM
Sat, Feb 13
36 °FClear.8 mph35%30.42 "Hg10 mi
7:53 PM37 °FClear.6 mph37%30.44 "Hg8 mi
6:53 PM39 °FClear.8 mph34%30.42 "Hg10 mi
5:53 PM41 °FClear.8 mph27%30.41 "Hg10 mi
4:53 PM46 °FSunny.8 mph19%30.41 "Hg10 mi
3:53 PM47 °FSunny.13 mph17%30.41 "Hg10 mi
2:53 PM48 °FSunny.9 mph18%30.41 "Hg10 mi
1:53 PM47 °FSunny.9 mph19%30.43 "Hg10 mi
12:53 PM45 °FSunny.6 mph22%30.46 "Hg10 mi
11:53 AM43 °FSunny.12 mph22%30.49 "Hg10 mi
10:53 AM41 °FSunny.15 mph26%30.52 "Hg10 mi
9:53 AM38 °FSunny.13 mph30%30.53 "Hg10 mi
8:53 AM36 °FSunny.17 mph32%30.52 "Hg10 mi
7:53 AM33 °FSunny.16 mph45%30.49 "Hg10 mi
6:53 AM31 °FSunny.8 mph64%30.46 "Hg10 mi
5:53 AM33 °FClear.12 mph56%30.44 "Hg10 mi
4:53 AM34 °FClear.12 mph59%30.40 "Hg10 mi
3:53 AM36 °FClear.13 mph57%30.38 "Hg10 mi
2:53 AM36 °FClear.8 mph62%30.39 "Hg10 mi
1:53 AM37 °FClear.7 mph60%30.37 "Hg10 mi
12:53 AM39 °FClear.7 mph55%30.35 "Hg10 mi
11:53 PM
Fri, Feb 12
41 °FClear.6 mph55%30.35 "Hg10 mi
10:53 PM44 °FClear.13 mph49%30.35 "Hg10 mi
Weather by CustomWeather, © 2016

See weather overviewHow to use our weather pages